Simultaneous Nadir Overpasses (SNOs) Predictions

Prediction of SNOs between AQUA and GOES-15 Satellite Orbit:

Table of predicted SNOs for the next 14.0 days since TLE Epoch: 7/15/2016
Index Date Time (AQUA) AQUA Lat,Lon GOES-15 Lat,Lon Distance(km) Time Diff (sec)
1 07/15/2016 22:46:59 -0.34,-137.87 0.18,-135.39 281.89 80
2 07/17/2016 22:34:47 0.25,-134.90 0.18,-135.34 49.82 80
3 07/19/2016 22:22:35 0.91,-131.95 0.18,-135.29 380.87 80
4 07/20/2016 10:43:49 0.17,-137.11 -0.20,-135.29 206.20 80
5 07/22/2016 10:31:36 -0.43,-134.14 -0.20,-135.23 124.16 80
6 07/22/2016 22:53:00 -0.68,-139.33 0.21,-135.21 469.30 80
7 07/24/2016 10:19:23 -1.04,-131.18 -0.19,-135.17 454.02 80
8 07/24/2016 22:40:47 -0.07,-136.37 0.21,-135.14 139.55 80
9 07/26/2016 22:28:34 0.56,-133.41 0.21,-135.07 189.52 80
10 07/27/2016 10:49:49 0.54,-138.56 -0.23,-135.06 398.03 80




NCC Satellite Simultaneous Nadir Overpasses (SNOs) Prediction Service
